W1JCN Weather Reports


Display with metric or nautical units.
time (UTC)temp
F
wind
direction
speed
MPH
gust
MPH
rain 1hr
in
rain 24hr
in
rain mn
in
humidity
%
barometer
mb
20260509182658 45 205 1.0 5.0 0.03 0.07 0.07 94 1009.6
20260509181758 45 201 1.0 4.0 0.02 0.06 0.06 94 1009.5
20260509180858 45 200 0.0 3.0 0.03 0.06 0.06 94 1009.5
20260509175958 45 198 0.0 1.0 0.03 0.06 0.06 94 1009.5
20260509175058 45 198 0.0 4.0 0.03 0.05 0.05 94 1009.5
20260509174158 45 198 0.0 5.0 0.03 0.05 0.05 94 1009.7
20260509173258 45 197 0.0 5.0 0.02 0.04 0.04 94 1009.8
20260509172358 45 199 1.0 6.0 0.02 0.04 0.04 94 1009.9
20260509171458 45 199 0.0 3.0 0.01 0.03 0.04 94 1009.8
20260509164758 45 203 0.0 1.0 0.01 0.02 0.02 94 1010.1
20260509163858 44 201 0.0 4.0 0.01 0.02 0.02 94 1010.2
20260509162958 44 196 0.0 2.0 0.01 0.02 0.02 94 1010.3
20260509162058 44 199 0.0 3.0 0.02 0.02 0.02 93 1010.3
20260509161158 44 206 0.0 2.0 0.02 0.02 0.02 93 1010.5
20260509160258 44 0 0.0 0.0 0.02 0.02 0.02 93 1010.6
20260509154458 44 209 0.0 2.0 0.01 0.01 0.01 92 1010.7
20260509153558 44 210 0.0 4.0 0.01 0.01 0.01 92 1010.8
20260509152658 44 210 0.0 4.0 0.00 0.00 0.00 92 1010.9
20260509151758 45 210 0.0 4.0 0.00 0.00 0.00 92 1011.0
20260509145958 45 0 0.0 0.0 0.00 0.00 0.00 92 1010.9
20260509145058 45 0 0.0 0.0 0.00 0.00 0.00 91 1010.8
20260509144158 45 210 0.0 3.0 0.00 0.00 0.00 90 1010.8
20260509143258 45 210 0.0 3.0 0.00 0.00 0.00 90 1010.8
20260509142358 45 210 0.0 4.0 0.00 0.00 0.00 89 1010.9
20260509141458 45 210 0.0 4.0 0.00 0.00 0.00 89 1010.9
20260509140558 45 210 0.0 2.0 0.00 0.00 0.00 87 1011.0
20260509135658 45 210 0.0 1.0 0.00 0.00 0.00 85 1010.8
20260509134758 46 210 0.0 2.0 0.00 0.00 0.00 84 1010.9
20260509132958 46 170 0.0 4.0 0.00 0.00 0.00 79 1010.8
20260509132058 46 183 1.0 4.0 0.00 0.00 0.00 75 1010.7
20260509131158 46 197 0.0 2.0 0.00 0.00 0.00 75 1010.7
20260509130258 46 187 1.0 4.0 0.00 0.00 0.00 73 1010.7
20260509123558 44 197 1.0 4.0 0.00 0.00 0.00 75 1010.9
20260509122658 44 183 0.0 2.0 0.00 0.00 0.00 76 1011.1
20260509121758 43 190 0.0 2.0 0.00 0.00 0.00 78 1011.2
20260509120858 42 190 1.0 3.0 0.00 0.00 0.00 79 1011.3
20260509115958 41 181 1.0 4.0 0.00 0.00 0.00 82 1011.3
20260509114158 38 255 0.0 1.0 0.00 0.00 0.00 93 1011.2
20260509113258 37 0 0.0 0.0 0.00 0.00 0.00 93 1011.3
20260509112358 36 0 0.0 0.0 0.00 0.00 0.00 93 1011.3
20260509111458 35 0 0.0 0.0 0.00 0.00 0.00 93 1011.2
20260509110558 34 0 0.0 0.0 0.00 0.00 0.00 93 1011.2
20260509105658 34 0 0.0 0.0 0.00 0.00 0.00 93 1011.2
20260509104758 34 0 0.0 0.0 0.00 0.00 0.00 93 1011.2
20260509102958 33 0 0.0 0.0 0.00 0.00 0.00 93 1011.1
20260509102058 32 0 0.0 0.0 0.00 0.00 0.00 93 1011.0
20260509101157 32 0 0.0 0.0 0.00 0.00 0.00 93 1011.0
20260509100258 32 0 0.0 0.0 0.00 0.00 0.00 93 1011.1
20260509095357 31 0 0.0 0.0 0.00 0.00 0.00 93 1011.0
20260509094457 31 0 0.0 0.0 0.00 0.00 0.00 92 1010.9
20260509093557 31 0 0.0 0.0 0.00 0.00 0.00 92 1010.8
20260509092658 31 0 0.0 0.0 0.00 0.00 0.00 92 1010.7
20260509091757 30 0 0.0 0.0 0.00 0.00 0.00 92 1010.6
20260509090857 30 0 0.0 0.0 0.00 0.00 0.00 92 1010.5
20260509085957 30 0 0.0 0.0 0.00 0.00 0.00 92 1010.4
20260509082357 30 0 0.0 0.0 0.00 0.00 0.00 92 1010.1
20260509081457 30 0 0.0 0.0 0.00 0.00 0.00 91 1010.1
20260509080557 30 0 0.0 0.0 0.00 0.00 0.00 91 1010.1
20260509075657 30 0 0.0 0.0 0.00 0.00 0.00 91 1010.1
20260509074757 30 0 0.0 0.0 0.00 0.00 0.00 91 1010.2
20260509073857 30 0 0.0 0.0 0.00 0.00 0.00 91 1010.1
20260509072957 30 255 0.0 1.0 0.00 0.00 0.00 91 1010.1
20260509072057 30 0 0.0 0.0 0.00 0.00 0.00 90 1010.2
20260509071157 31 0 0.0 0.0 0.00 0.00 0.00 90 1010.2
20260509070257 31 0 0.0 0.0 0.00 0.00 0.00 90 1010.2
20260509065357 31 0 0.0 0.0 0.00 0.00 0.00 90 1010.4
20260509064457 31 0 0.0 0.0 0.00 0.00 0.00 90 1010.5
20260509063557 31 0 0.0 0.0 0.00 0.00 0.00 89 1010.4
20260509062657 32 0 0.0 0.0 0.00 0.00 0.00 89 1010.6
20260509055957 32 0 0.0 0.0 0.00 0.00 0.00 89 1010.6
20260509055057 32 0 0.0 0.0 0.00 0.00 0.00 88 1010.8
20260509053257 32 0 0.0 0.0 0.00 0.00 0.00 88 1010.6
20260509052357 33 0 0.0 0.0 0.00 0.00 0.00 88 1010.5
20260509051457 33 0 0.0 0.0 0.00 0.00 0.00 88 1010.5
20260509045657 33 0 0.0 0.0 0.00 0.00 0.00 87 1010.3
20260509044757 34 0 0.0 0.0 0.00 0.00 0.00 87 1010.3
20260509042957 34 0 0.0 0.0 0.00 0.00 0.00 86 1010.2
20260509042057 34 0 0.0 0.0 0.00 0.00 0.00 86 1010.2
20260509041157 35 0 0.0 0.0 0.00 0.00 0.00 86 1010.2
20260509040257 35 0 0.0 0.0 0.00 0.00 0.00 85 1010.2
20260509035357 35 0 0.0 0.0 0.00 0.00 0.00 85 1010.1
20260509034457 36 0 0.0 0.0 0.00 0.00 0.00 84 1010.1
20260509033557 36 0 0.0 0.0 0.00 0.00 0.00 84 1010.1
20260509032657 36 0 0.0 0.0 0.00 0.00 0.00 83 1010.0
20260509031757 36 0 0.0 0.0 0.00 0.00 0.00 83 1010.0
20260509025957 37 0 0.0 0.0 0.00 0.00 0.00 81 1009.8
20260509025057 38 0 0.0 0.0 0.00 0.00 0.00 81 1009.7
20260509024156 38 0 0.0 0.0 0.00 0.00 0.00 80 1009.6
20260509023257 39 0 0.0 0.0 0.00 0.00 0.00 79 1009.7
20260509022357 39 0 0.0 0.0 0.00 0.00 0.00 77 1009.6
20260509021457 40 0 0.0 0.0 0.00 0.00 0.00 76 1009.6
20260509020556 40 0 0.0 0.0 0.00 0.00 0.00 75 1009.5
20260509015657 41 0 0.0 0.0 0.00 0.00 0.00 75 1009.3
20260509014756 42 0 0.0 0.0 0.00 0.00 0.00 74 1009.3
20260509013856 42 0 0.0 0.0 0.00 0.00 0.00 73 1009.2
20260509012956 43 0 0.0 0.0 0.00 0.00 0.00 71 1009.1
20260509010256 44 0 0.0 0.0 0.00 0.00 0.00 69 1008.6
20260509005356 44 0 0.0 0.0 0.00 0.00 0.00 68 1008.4
20260509003556 44 255 0.0 3.0 0.00 0.00 0.00 65 1008.2
20260509001756 45 255 0.0 3.0 0.00 0.00 0.00 63 1007.9
20260509000856 45 254 1.0 5.0 0.00 0.00 0.00 63 1007.9
20260508235956 46 252 0.0 2.0 0.00 0.00 0.00 63 1007.8
20260508235056 46 250 1.0 4.0 0.00 0.00 0.00 64 1007.8
20260508234156 46 262 0.0 3.0 0.00 0.00 0.00 62 1007.6
20260508233256 46 245 1.0 5.0 0.00 0.00 0.00 64 1007.5
20260508232356 46 211 1.0 5.0 0.00 0.00 0.00 64 1007.5
20260508231456 46 228 0.0 2.0 0.00 0.00 0.00 63 1007.3
20260508230556 47 235 1.0 4.0 0.00 0.00 0.00 63 1007.2
20260508225657 47 253 1.0 3.0 0.00 0.00 0.00 64 1007.4
20260508224756 47 271 1.0 5.0 0.00 0.00 0.00 61 1007.3
20260508222956 48 220 1.0 4.0 0.00 0.00 0.00 60 1007.2
20260508222057 48 235 1.0 5.0 0.00 0.00 0.00 57 1007.1
20260508221156 49 215 1.0 4.0 0.00 0.00 0.00 56 1007.1
20260508220256 50 259 2.0 7.0 0.00 0.00 0.00 57 1007.1
20260508215356 50 242 2.0 9.0 0.00 0.00 0.00 58 1006.9
20260508214456 50 214 1.0 6.0 0.00 0.00 0.00 59 1007.0
20260508213556 50 246 1.0 6.0 0.00 0.00 0.00 54 1006.9
20260508212656 50 248 1.0 5.0 0.00 0.00 0.00 47 1006.8
20260508211756 50 247 1.0 5.0 0.00 0.00 0.00 48 1006.6
20260508210856 51 310 1.0 5.0 0.00 0.00 0.00 43 1006.4
20260508205056 51 245 2.0 7.0 0.00 0.00 0.00 46 1006.2
20260508204156 51 236 1.0 4.0 0.00 0.00 0.00 46 1006.3
20260508203256 51 264 1.0 6.0 0.00 0.00 0.00 45 1006.3
20260508202356 51 241 1.0 4.0 0.00 0.00 0.00 45 1006.1
20260508200556 51 308 1.0 9.0 0.00 0.00 0.00 43 1006.1
20260508195656 51 254 1.0 5.0 0.00 0.00 0.00 43 1006.1
20260508194756 51 252 1.0 3.0 0.00 0.00 0.00 45 1006.2
20260508192956 52 222 1.0 3.0 0.00 0.00 0.00 43 1006.1
20260508190256 52 250 1.0 5.0 0.00 0.00 0.00 43 1006.1
20260508185356 52 277 2.0 8.0 0.00 0.00 0.00 41 1006.1
20260508184456 52 243 1.0 7.0 0.00 0.00 0.00 46 1006.1